Location: Kelshall
(52.0000°N, 0.0500°W)
Time: 04:54:55
(UTC+00:00)

X-37B - Visible Passes

Search period start: 25 November 2020 00:00
Search period end: 05 December 2020 00:00
Orbit: 384 x 389 km, 45.0° (Epoch: 12 November)

Date Brightness Start Highest point End Pass type
(mag) Time Alt. Az. Time Alt. Az. Time Alt. Az.
29 Nov 3.0 17:47:15 10° S 17:48:39 12° SSE 17:48:55 12° SSE visible
30 Nov 2.9 18:23:48 10° SW 18:25:15 17° SSW 18:25:15 17° SSW visible
01 Dec 2.9 17:25:46 10° SSW 17:27:51 16° SSE 17:29:18 13° SE visible
01 Dec 3.8 19:01:15 10° SW 19:01:34 12° SW 19:01:34 12° SW visible
02 Dec 2.4 18:02:54 10° SW 18:05:27 22° S 18:05:36 22° S visible
03 Dec 2.7 17:04:40 10° SW 17:07:04 20° SSE 17:09:29 10° ESE visible
03 Dec 3.2 18:40:35 10° WSW 18:41:55 18° SW 18:41:55 18° SW visible
04 Dec 2.5 17:42:07 10° SW 17:44:43 23° S 17:46:00 18° SE visible
